Flag for Colombia Weather past 2 weeks in Bucaramanga, Colombia

Now
73 °F

Scattered clouds.


Feels Like: 74 °F
Forecast: N/A
Wind: 7 mph from Northwest

Location: Bucaramanga / Palonegro

Current Time: Mar 2, 2015 at 6:58:55 PM

Latest Report: Mar 2, 2015 at 6:00 PM


Visibility: N/A

Pressure: 29.92 "Hg

Humidity: 78%

Dew point: 66 °F

Location of BucaramangaLocation

Historic Weather in Bucaramanga — Graph

°F

Bucaramanga temperature yesterday

Maximum temperature yesterday: 77 °F (at 10:00 AM)
Minimum temperature yesterday: 68 °F (at 6:00 AM)
Average temperature yesterday: 73 °F

Past Weeks' High & Low Weather Summary

 TemperatureHumidityPressure
High82 °F (Mar 2, 1:00 PM)100% (Feb 15, 10:00 PM)30.09 "Hg (Feb 15, 10:00 PM)
Low64 °F (Feb 20, 10:00 AM)51% (Feb 23, 11:00 AM)29.88 "Hg (Feb 16, 3:00 PM)
Average73 °F78%29.98 "Hg
* Reported Feb 15 5:00 PM — Mar 2 5:00 PM, Bucaramanga, Weather by CustomWeather, © 2015

Note: Actual official high and low records may vary slightly from our data, if they occured in-between our weather recording intervals... More about our weather records

Advertising

Bucaramanga weather history for previous 24 hours

 ConditionsComfort  
Time TempWeatherWind HumidityBarometerVisibility
5:00 PM
Mon, Mar 2
75 °FScattered clouds.6 mph74%29.91 "HgN/A
4:00 PM77 °FScattered clouds.5 mph69%29.90 "HgN/A
3:00 PM77 °FScattered clouds.3 mph69%29.92 "HgN/A
2:00 PM75 °FScattered clouds.5 mph74%N/AN/A
1:00 PM82 °FScattered clouds.6 mph58%29.99 "HgN/A
12:00 PM77 °FScattered clouds.6 mph69%30.02 "HgN/A
11:00 AM77 °FScattered clouds.3 mph65%30.03 "HgN/A
10:00 AM77 °FScattered clouds.5 mph65%30.05 "HgN/A
9:00 AM75 °FScattered clouds.3 mph74%30.05 "HgN/A
8:00 AM70 °FScattered clouds.2 mph88%30.03 "HgN/A
7:00 AM66 °FScattered clouds.5 mph94%30.00 "HgN/A
6:00 AM66 °FPassing clouds.3 mph94%29.99 "HgN/A
12:00 AM70 °FPassing clouds.6 mph88%30.04 "HgN/A
11:00 PM
Sun, Mar 1
70 °FPassing clouds.5 mph88%30.06 "HgN/A
10:00 PM72 °FPassing clouds.2 mph83%30.04 "HgN/A
9:00 PM73 °FPassing clouds.No wind74%30.01 "HgN/A
8:00 PM73 °FPassing clouds.5 mph78%29.98 "HgN/A
7:00 PM73 °FPassing clouds.5 mph74%29.94 "HgN/A
6:00 PM73 °FScattered clouds.5 mph78%29.92 "HgN/A
Weather by CustomWeather, © 2015

See weather overviewHow to use our weather pages